Regional Weather Roundup
Issued by NWS

Home | Current Version | Previous Version | Graphics & Text | Print | Product List | Glossary On
Versions: 1 2 3 4 5 6 7 8 9 10 11 12 13 14 15 16 17 18 19 20 21 22 23 24 25 26 27 28 29 30 31 32 33 34 35 36 37 38 39 40 41 42 43 44 45 46 47 48 49 50
000
ASUS43 KMKX 161859
RWRWI

WISCONSIN REGIONAL WEATHER ROUNDUP
NATIONAL WEATHER SERVICE MILWAUKEE/SULLIVAN WI
100 PM CST MON JAN 16 2017

NOTE: "FAIR" INDICATES FEW OR NO CLOUDS BELOW 12,000 FEET WITH NO
SIGNIFICANT WEATHER AND/OR OBSTRUCTIONS TO VISIBILITY.

WIZ001-002-006>008-014>016-023>028-162000-
NORTHWEST WISCONSIN

CITY           SKY/WX    TMP DP  RH WIND       PRES   REMARKS
SUPERIOR ARPT  CLOUDY    29  18  63 NW3       30.12F
ASHLAND          N/A     33  20  58 S7        30.11F WCI  27
HAYWARD        CLOUDY    30  20  66 S8        30.11F WCI  22
SIREN          CLOUDY    30  18  60 CALM      30.12F
CUMBERLAND     CLOUDY    19  18  93 CALM      30.12F
RICE LAKE      CLOUDY    18  13  80 CALM      30.15F
CHETEK         CLOUDY    23  16  75 CALM      30.15F
LADYSMITH      CLOUDY    23  18  80 CALM      30.15F
EAU CLAIRE     CLOUDY    26  16  65 NE6       30.12F WCI  19
MENOMONIE      CLOUDY    21  15  79 N3        30.14F HAZE
NEW RICHMOND   CLOUDY    26  17  67 E5        30.12F WCI  20
OSCEOLA        CLOUDY    26  17  70 E3        30.16S
$$

WIZ003>005-009-010-017-018-162000-
NORTH CENTRAL WISCONSIN

CITY           SKY/WX    TMP DP  RH WIND       PRES   REMARKS
MANITOWISH WTR CLOUDY    26  16  64 S5        30.11F WCI  21
ARBOR VITAE    CLOUDY    32  19  58 S5        30.11F WCI  27
WOODRUFF       CLOUDY    32  19  58 S5        30.11F WCI  27
RHINELANDER    CLOUDY    31  15  52 CALM      30.12F
EAGLE RIVER    CLOUDY    30  18  61 SW5       30.11F WCI  25
LAND O LAKES   CLOUDY    31  18  58 CALM      30.12F
PHILLIPS       CLOUDY    27  17  64 CALM      30.11F
TOMAHAWK       CLOUDY    28  14  55 CALM      30.13F
MEDFORD        CLOUDY    25  15  64 CALM      30.13F
MERRILL        CLOUDY    24  14  65 CALM        N/A
$$

WIZ029-030-035-036-043>047-162000-
CENTRAL WISCONSIN

CITY           SKY/WX    TMP DP  RH WIND       PRES   REMARKS
WAUSAU         CLOUDY    25  14  63 CALM      30.13F HAZE
MOSINEE        CLOUDY    25  18  74 CALM      30.14F
MARSHFIELD     CLOUDY    23  14  68 E8        30.11F WCI  14
STEVENS POINT  CLOUDY    27  19  72 E3        30.15F
WAUPACA        CLOUDY    30  20  64 CALM      30.18F
WAUTOMA        MIX PCPN  31  24  75 E5        30.15  WCI  26
WISC RAPIDS    CLOUDY    31  18  58 E5        30.14F WCI  26
CAMP DOUGLAS   NOT AVBL
$$

WIZ011>013-019>022-031-037>040-048>050-162000-
NORTHEAST WISCONSIN

CITY           SKY/WX    TMP DP  RH WIND       PRES   REMARKS
ANTIGO         CLOUDY    22  16  78 CALM      30.14F
SHAWANO        CLOUDY    29  16  59 CALM      30.20F
OCONTO         CLOUDY    28  17  62 CALM      30.20F
STURGEON BAY   CLOUDY    33  18  53 S3        30.20F
GREEN BAY      CLOUDY    32  22  66 N5        30.18F WCI  27
MANITOWOC      NOT AVBL
APPLETON       PTSUNNY   30  18  59 NE3       30.15F
CLINTONVILLE   CLOUDY    25  14  63 CALM      30.18F
OSHKOSH        MIX PCPN  30  21  69 E5        30.16F WCI  25
$$

WIZ032>034-041-042-053>061-162000-
SOUTHWEST WISCONSIN

CITY           SKY/WX    TMP DP  RH WIND       PRES   REMARKS
LA CROSSE      CLOUDY    32  23  69 NW6       30.10F WCI  26
SPARTA         CLOUDY    31  25  78 E7        30.12F WCI  24
VIROQUA        CLOUDY    32  31  97 E10       30.06F WCI  23
BOSCOBEL       MIX PCPN  32  30  92 NE7       30.08F FOG     WCI  26
PRAIRIE DU CHI MIX PCPN  33  32  96 E5        30.07F WCI  28
PLATTEVILLE    CLOUDY    32  32 100 E10       30.07F WCI  24
$$

WIZ056-057-062-063-064-067-068-162000-
SOUTH CENTRAL WISCONSIN

CITY           SKY/WX    TMP DP  RH WIND       PRES   REMARKS
REEDSBURG      DRIZZLE   31  30  97 E5        30.12F WCI  26
BARABOO/DELLS  DRIZZLE   31  28  89 E7        30.12F WCI  24
LONE ROCK      FRZ RAIN  32  29  88 NE7       30.11F FOG     WCI  26
MINERAL POINT  LGT RAIN  34  34 100 E7        30.07F WCI  28
MADISON        FRZ RAIN  32  30  92 E8        30.10F FOG     WCI  25
MIDDLETON      CLOUDY    33  33 100 E5        30.12F WCI  28
WATERTOWN      MIX PCPN  32  32 100 E7        30.14F WCI  26
MONROE         MIX PCPN  32  32 100 E8        30.08F WCI  25
JANESVILLE     DRIZZLE   36  34  93 E6        30.11F WCI  31
$$

WIZ051-052-058>065-066-070>072-162000-
SOUTHEAST WISCONSIN

CITY           SKY/WX    TMP DP  RH WIND       PRES   REMARKS
MILWAUKEE      LGT RAIN  35  32  88 E8        30.16F FOG     WCI  29
WAUKESHA       CLOUDY    30  30 100 E6        30.16F FOG     WCI  24
MILWAUKEE/TIMM DRIZZLE   34  30  86 E7        30.18F WCI  28
RACINE         LGT RAIN  34  30  85 E7        30.17F WCI  28
KENOSHA        LGT RAIN  34  32  92 E8        30.14F FOG     WCI  27
FOND DU LAC    CLOUDY    34  22  61 NE5       30.16F WCI  30
SHEBOYGAN      CLOUDY    33  25  72 SE3       30.18F
WEST BEND      DRIZZLE   34  32  93 E6        30.17F WCI  29
JUNEAU         DRIZZLE   33  29  88 E7        30.15F WCI  26
$$

LSZ147-162-162000-
LAKE SUPERIOR

STATION/POSITION TIME  TEMP    WIND        PRES    WAVE
                       AIR SEA DIR/SP/G            HT/PER
                 (UTC) (F)     (DEG/KT/KT) (MB)    (FT/S)
DEVILS ISLAND    1800   28     230/ 14/ 16 1021.2F
PORT WING        1840   29     300/  9/ 10 1020.0F
SAXON HARBOR     1830   35     340/  7/  9 1020.0F
$$

LMZ867-665-643>646-162000-
LAKE MICHIGAN

STATION/POSITION TIME  TEMP    WIND        PRES    WAVE
                       AIR SEA DIR/SP/G            HT/PER
                 (UTC) (F)     (DEG/KT/KT) (MB)    (FT/S)
NORTHPORT PIER   1840   34     180/  2/  6 1022.0F
SISTER BAY       1750   31        CALM       N/A
KEWAUNEE LAKESHO 1830   31      CALM  /  1 1022.5F
SHEBOYGAN LAKESH 1800   32        CALM     1023.8F
PORT WASHINGTON  1840   33      30/  2/  3 1023.0F
MILWAUKEE LAKESH 1830   32      30/  3/  3   N/A
KENOSHA   LAKESH 1800   32      CALM  /  2 1022.4
$$

TC  - TEMPERATURE IN CELSIUS
VSB - VISIBILITY IN STATUTE MILES
WCI - WIND CHILL INDEX
HX  - HEAT INDEX





USA.gov is the U.S. government's official web portal to all federal, state and local government web resources and services.